Time,TemperatureF,DewpointF,PressureIn,WindDirection,WindDirectionDegrees,WindSpeedMPH,WindSpeedGustMPH,Humidity,HourlyPrecipIn,Conditions,Clouds,dailyrainin,SoftwareType,DateUTC
2013-01-02 00:02:00,66.0,62.0,30.06,East,94,0.0,-999.0,87,-99.99,,,-99.99,,2013-01-02 10:02:00,
2013-01-02 00:12:00,65.0,61.0,30.05,East,84,0.0,-999.0,88,-99.99,,,-99.99,,2013-01-02 10:12:00,
2013-01-02 00:22:00,65.0,61.0,30.05,East,84,0.0,-999.0,88,-99.99,,,-99.99,,2013-01-02 10:22:00,
2013-01-02 00:32:00,65.0,61.0,30.05,East,80,0.0,-999.0,87,-99.99,,,-99.99,,2013-01-02 10:32:00,
2013-01-02 00:42:00,65.0,61.0,30.05,East,80,0.0,-999.0,87,-99.99,,,-99.99,,2013-01-02 10:42:00,
2013-01-02 00:52:00,66.0,61.0,30.04,East,85,1.0,-999.0,85,-99.99,,,-99.99,,2013-01-02 10:52:00,
2013-01-02 01:02:00,67.0,62.0,30.04,East,98,2.0,-999.0,83,-99.99,,,-99.99,,2013-01-02 11:02:00,
2013-01-02 01:11:00,67.0,62.0,30.04,East,98,2.0,-999.0,83,-99.99,,,-99.99,,2013-01-02 11:11:00,
2013-01-02 01:22:00,67.0,61.0,30.05,East,100,1.0,-999.0,82,-99.99,,,-99.99,,2013-01-02 11:22:00,
2013-01-02 01:32:00,67.0,62.0,30.05,ESE,107,1.0,-999.0,84,-99.99,,,-99.99,,2013-01-02 11:32:00,
2013-01-02 01:42:00,67.0,62.0,30.05,ESE,107,1.0,-999.0,84,-99.99,,,-99.99,,2013-01-02 11:42:00,
2013-01-02 01:52:00,67.0,62.0,30.05,ESE,115,2.0,-999.0,83,-99.99,,,-99.99,,2013-01-02 11:52:00,
2013-01-02 02:02:00,68.0,62.0,30.05,ESE,122,2.0,-999.0,82,-99.99,,,-99.99,,2013-01-02 12:02:00,
2013-01-02 02:12:00,68.0,62.0,30.05,ESE,122,2.0,-999.0,82,-99.99,,,-99.99,,2013-01-02 12:12:00,
2013-01-02 02:22:00,68.0,63.0,30.04,SSE,154,2.0,-999.0,83,-99.99,,,-99.99,,2013-01-02 12:22:00,
2013-01-02 02:32:00,68.0,63.0,30.04,SE,129,2.0,-999.0,83,-99.99,,,-99.99,,2013-01-02 12:32:00,
2013-01-02 02:42:00,68.0,63.0,30.04,SE,129,2.0,-999.0,83,-99.99,,,-99.99,,2013-01-02 12:42:00,
2013-01-02 02:52:00,68.0,63.0,30.04,SSE,162,3.0,-999.0,83,-99.99,,,-99.99,,2013-01-02 12:52:00,
2013-01-02 03:02:00,68.0,63.0,30.03,SE,142,2.0,-999.0,85,-99.99,,,-99.99,,2013-01-02 13:02:00,
2013-01-02 03:12:00,68.0,63.0,30.03,SE,142,2.0,-999.0,85,-99.99,,,-99.99,,2013-01-02 13:12:00,
2013-01-02 03:22:00,67.0,62.0,30.03,SSE,148,2.0,-999.0,85,-99.99,,,-99.99,,2013-01-02 13:22:00,
2013-01-02 03:32:00,67.0,63.0,30.03,ESE,107,1.0,-999.0,86,-99.99,,,-99.99,,2013-01-02 13:32:00,
2013-01-02 03:42:00,67.0,63.0,30.03,ESE,107,1.0,-999.0,86,-99.99,,,-99.99,,2013-01-02 13:42:00,
2013-01-02 03:52:00,67.0,63.0,30.03,ENE,76,1.0,-999.0,86,-99.99,,,-99.99,,2013-01-02 13:52:00,
2013-01-02 04:02:00,67.0,63.0,30.03,ESE,104,1.0,-999.0,86,-99.99,,,-99.99,,2013-01-02 14:02:00,
2013-01-02 04:12:00,67.0,63.0,30.03,ESE,104,1.0,-999.0,86,-99.99,,,-99.99,,2013-01-02 14:12:00,
2013-01-02 04:22:00,67.0,62.0,30.03,ENE,74,1.0,-999.0,85,-99.99,,,-99.99,,2013-01-02 14:22:00,
2013-01-02 04:32:00,66.0,61.0,30.03,East,86,0.0,-999.0,85,-99.99,,,-99.99,,2013-01-02 14:32:00,
2013-01-02 04:42:00,66.0,61.0,30.03,East,86,0.0,-999.0,85,-99.99,,,-99.99,,2013-01-02 14:42:00,
2013-01-02 04:53:00,66.0,62.0,30.03,East,80,0.0,-999.0,86,-99.99,,,-99.99,,2013-01-02 14:53:00,
2013-01-02 05:02:00,65.0,61.0,30.03,ENE,75,0.0,-999.0,86,-99.99,,,-99.99,,2013-01-02 15:02:00,
2013-01-02 05:12:00,65.0,61.0,30.03,ENE,75,0.0,-999.0,86,-99.99,,,-99.99,,2013-01-02 15:12:00,
2013-01-02 05:22:00,65.0,61.0,30.03,East,89,1.0,-999.0,86,-99.99,,,-99.99,,2013-01-02 15:22:00,
2013-01-02 05:33:00,65.0,61.0,30.03,ENE,73,1.0,-999.0,86,-99.99,,,-99.99,,2013-01-02 15:33:00,
2013-01-02 05:42:00,65.0,61.0,30.03,ENE,73,1.0,-999.0,86,-99.99,,,-99.99,,2013-01-02 15:42:00,
2013-01-02 05:52:00,64.0,60.0,30.03,ENE,75,0.0,-999.0,86,-99.99,,,-99.99,,2013-01-02 15:52:00,
2013-01-02 06:02:00,63.0,59.0,30.03,ENE,59,1.0,-999.0,86,-99.99,,,-99.99,,2013-01-02 16:02:00,
2013-01-02 06:11:00,63.0,59.0,30.03,ENE,59,1.0,-999.0,86,-99.99,,,-99.99,,2013-01-02 16:11:00,
2013-01-02 06:22:00,63.0,58.0,30.03,ENE,57,0.0,-999.0,85,-99.99,,,-99.99,,2013-01-02 16:22:00,
2013-01-02 06:33:00,64.0,59.0,30.03,NE,51,1.0,-999.0,84,-99.99,,,-99.99,,2013-01-02 16:33:00,
2013-01-02 06:42:00,64.0,59.0,30.03,NE,51,1.0,-999.0,84,-99.99,,,-99.99,,2013-01-02 16:42:00,
2013-01-02 06:53:00,63.0,59.0,30.03,NE,51,0.0,-999.0,86,-99.99,,,-99.99,,2013-01-02 16:53:00,
2013-01-02 07:03:00,62.0,58.0,30.04,NE,52,0.0,-999.0,87,-99.99,,,-99.99,,2013-01-02 17:03:00,
2013-01-02 07:12:00,62.0,58.0,30.04,NE,52,0.0,-999.0,87,-99.99,,,-99.99,,2013-01-02 17:12:00,
2013-01-02 07:22:00,62.0,58.0,30.04,NE,51,0.0,-999.0,87,-99.99,,,-99.99,,2013-01-02 17:22:00,
2013-01-02 07:33:00,62.0,58.0,30.05,NE,51,0.0,-999.0,88,-99.99,,,-99.99,,2013-01-02 17:33:00,
2013-01-02 07:42:00,62.0,58.0,30.05,NE,51,0.0,-999.0,88,-99.99,,,-99.99,,2013-01-02 17:42:00,
2013-01-02 07:53:00,63.0,60.0,30.04,NE,51,0.0,-999.0,89,-99.99,,,-99.99,,2013-01-02 17:53:00,
2013-01-02 08:02:00,63.0,60.0,30.05,NE,51,0.0,-999.0,89,-99.99,,,-99.99,,2013-01-02 18:02:00,
2013-01-02 08:12:00,63.0,60.0,30.05,NE,51,0.0,-999.0,89,-99.99,,,-99.99,,2013-01-02 18:12:00,
2013-01-02 08:22:00,63.0,60.0,30.05,NE,51,0.0,-999.0,90,-99.99,,,-99.99,,2013-01-02 18:22:00,
2013-01-02 08:33:00,64.0,61.0,30.05,NE,51,0.0,-999.0,89,-99.99,,,-99.99,,2013-01-02 18:33:00,
2013-01-02 08:42:00,64.0,61.0,30.05,NE,51,0.0,-999.0,89,-99.99,,,-99.99,,2013-01-02 18:42:00,
2013-01-02 08:52:00,66.0,62.0,30.05,NE,51,0.0,-999.0,86,-99.99,,,-99.99,,2013-01-02 18:52:00,
2013-01-02 09:02:00,67.0,62.0,30.06,NE,51,0.0,-999.0,85,-99.99,,,-99.99,,2013-01-02 19:02:00,
2013-01-02 09:12:00,67.0,62.0,30.06,NE,51,0.0,-999.0,85,-99.99,,,-99.99,,2013-01-02 19:12:00,
2013-01-02 09:22:00,68.0,63.0,30.06,NE,51,0.0,-999.0,84,-99.99,,,-99.99,,2013-01-02 19:22:00,
2013-01-02 09:32:00,70.0,64.0,30.07,West,266,1.0,-999.0,82,-99.99,,,-99.99,,2013-01-02 19:32:00,
2013-01-02 09:42:00,70.0,64.0,30.07,West,266,1.0,-999.0,82,-99.99,,,-99.99,,2013-01-02 19:42:00,
2013-01-02 09:52:00,71.0,65.0,30.07,WNW,288,1.0,-999.0,80,-99.99,,,-99.99,,2013-01-02 19:52:00,
2013-01-02 10:02:00,72.0,65.0,30.07,SSW,203,1.0,-999.0,78,-99.99,,,-99.99,,2013-01-02 20:02:00,
2013-01-02 10:11:00,72.0,65.0,30.07,SSW,203,1.0,-999.0,78,-99.99,,,-99.99,,2013-01-02 20:11:00,
2013-01-02 10:22:00,73.0,64.0,30.07,SW,234,2.0,-999.0,74,-99.99,,,-99.99,,2013-01-02 20:22:00,
2013-01-02 10:32:00,72.0,65.0,30.08,WSW,255,2.0,-999.0,78,-99.99,,,-99.99,,2013-01-02 20:32:00,
2013-01-02 10:42:00,72.0,65.0,30.08,WSW,255,2.0,-999.0,78,-99.99,,,-99.99,,2013-01-02 20:42:00,
2013-01-02 10:53:00,72.0,65.0,30.08,West,260,2.0,-999.0,78,-99.99,,,-99.99,,2013-01-02 20:53:00,
2013-01-02 11:02:00,73.0,66.0,30.08,West,265,3.0,-999.0,79,-99.99,,,-99.99,,2013-01-02 21:02:00,
2013-01-02 11:12:00,73.0,66.0,30.08,West,265,3.0,-999.0,79,-99.99,,,-99.99,,2013-01-02 21:12:00,
2013-01-02 11:22:00,73.0,65.0,30.06,SSW,194,2.0,-999.0,77,-99.99,,,-99.99,,2013-01-02 21:22:00,
2013-01-02 11:32:00,73.0,66.0,30.06,South,184,4.0,-999.0,79,-99.99,,,-99.99,,2013-01-02 21:32:00,
2013-01-02 11:42:00,73.0,66.0,30.06,South,184,4.0,-999.0,79,-99.99,,,-99.99,,2013-01-02 21:42:00,
2013-01-02 11:52:00,73.0,66.0,30.05,SW,231,2.0,-999.0,78,-99.99,,,-99.99,,2013-01-02 21:52:00,
2013-01-02 12:02:00,74.0,67.0,30.04,South,188,2.0,-999.0,78,-99.99,,,-99.99,,2013-01-02 22:02:00,
2013-01-02 12:12:00,74.0,67.0,30.04,South,188,2.0,-999.0,78,-99.99,,,-99.99,,2013-01-02 22:12:00,
2013-01-02 12:22:00,73.0,65.0,30.03,SSW,192,2.0,-999.0,77,-99.99,,,-99.99,,2013-01-02 22:22:00,
2013-01-02 12:32:00,73.0,66.0,30.03,West,259,3.0,-999.0,78,-99.99,,,-99.99,,2013-01-02 22:32:00,
2013-01-02 12:42:00,73.0,66.0,30.03,West,259,3.0,-999.0,78,-99.99,,,-99.99,,2013-01-02 22:42:00,
2013-01-02 12:52:00,72.0,65.0,30.02,SW,227,2.0,-999.0,79,-99.99,,,-99.99,,2013-01-02 22:52:00,
2013-01-02 13:02:00,72.0,65.0,30.02,WSW,240,2.0,-999.0,79,-99.99,,,-99.99,,2013-01-02 23:02:00,
2013-01-02 13:12:00,72.0,66.0,30.01,SSW,208,2.0,-999.0,81,-99.99,,,-99.99,,2013-01-02 23:12:00,
2013-01-02 13:22:00,72.0,66.0,30.01,SSW,208,2.0,-999.0,81,-99.99,,,-99.99,,2013-01-02 23:22:00,
2013-01-02 13:32:00,71.0,65.0,30.01,SW,234,1.0,-999.0,82,-99.99,,,-99.99,,2013-01-02 23:32:00,
2013-01-02 13:42:00,71.0,65.0,30.01,SW,234,1.0,-999.0,82,-99.99,,,-99.99,,2013-01-02 23:42:00,
2013-01-02 13:52:00,71.0,66.0,30.00,SW,229,1.0,-999.0,84,-99.99,,,-99.99,,2013-01-02 23:52:00,
2013-01-02 14:02:00,71.0,66.0,30.00,South,188,1.0,-999.0,84,-99.99,,,-99.99,,2013-01-03 00:02:00,
2013-01-02 14:12:00,71.0,66.0,30.00,South,188,1.0,-999.0,84,-99.99,,,-99.99,,2013-01-03 00:12:00,
2013-01-02 14:22:00,71.0,66.0,29.99,SSW,198,1.0,-999.0,83,-99.99,,,-99.99,,2013-01-03 00:22:00,
2013-01-02 14:37:00,71.0,65.0,29.98,South,188,0.0,-999.0,82,-99.99,,,-99.99,,2013-01-03 00:37:00,
2013-01-02 14:42:00,71.0,65.0,29.98,South,188,0.0,-999.0,82,-99.99,,,-99.99,,2013-01-03 00:42:00,
2013-01-02 14:52:00,71.0,65.0,29.98,SSE,165,0.0,-999.0,81,-99.99,,,-99.99,,2013-01-03 00:52:00,
2013-01-02 15:02:00,71.0,65.0,29.98,SE,133,0.0,-999.0,80,-99.99,,,-99.99,,2013-01-03 01:02:00,
2013-01-02 15:12:00,71.0,65.0,29.98,SE,133,0.0,-999.0,80,-99.99,,,-99.99,,2013-01-03 01:12:00,
2013-01-02 15:22:00,71.0,65.0,29.98,SSW,198,2.0,-999.0,80,-99.99,,,-99.99,,2013-01-03 01:22:00,
2013-01-02 15:32:00,71.0,65.0,29.98,SSW,194,1.0,-999.0,81,-99.99,,,-99.99,,2013-01-03 01:32:00,
2013-01-02 15:42:00,71.0,65.0,29.98,SSW,194,1.0,-999.0,81,-99.99,,,-99.99,,2013-01-03 01:42:00,
2013-01-02 15:52:00,71.0,64.0,29.98,SSW,193,2.0,-999.0,79,-99.99,,,-99.99,,2013-01-03 01:52:00,
2013-01-02 16:02:00,71.0,63.0,29.98,South,188,3.0,-999.0,76,-99.99,,,-99.99,,2013-01-03 02:02:00,
2013-01-02 16:12:00,71.0,63.0,29.98,South,188,3.0,-999.0,76,-99.99,,,-99.99,,2013-01-03 02:12:00,
2013-01-02 16:22:00,71.0,62.0,29.98,South,186,2.0,-999.0,74,-99.99,,,-99.99,,2013-01-03 02:22:00,
2013-01-02 16:32:00,71.0,62.0,29.98,South,186,1.0,-999.0,74,-99.99,,,-99.99,,2013-01-03 02:32:00,
2013-01-02 16:42:00,71.0,62.0,29.98,South,186,1.0,-999.0,74,-99.99,,,-99.99,,2013-01-03 02:42:00,
2013-01-02 16:52:00,71.0,62.0,29.98,South,186,1.0,-999.0,74,-99.99,,,-99.99,,2013-01-03 02:52:00,
2013-01-02 17:02:00,71.0,63.0,29.98,SSW,193,1.0,-999.0,76,-99.99,,,-99.99,,2013-01-03 03:02:00,
2013-01-02 17:12:00,71.0,63.0,29.99,SSW,200,1.0,-999.0,77,-99.99,,,-99.99,,2013-01-03 03:12:00,
2013-01-02 17:22:00,71.0,63.0,29.99,SSW,200,1.0,-999.0,77,-99.99,,,-99.99,,2013-01-03 03:22:00,
2013-01-02 17:46:00,70.0,63.0,29.99,SE,130,0.0,-999.0,79,-99.99,,,-99.99,,2013-01-03 03:46:00,
2013-01-02 17:52:00,70.0,63.0,29.99,SE,130,0.0,-999.0,79,-99.99,,,-99.99,,2013-01-03 03:52:00,
2013-01-02 18:02:00,69.0,63.0,30.00,SSE,150,0.0,-999.0,82,-99.99,,,-99.99,,2013-01-03 04:02:00,
2013-01-02 18:12:00,69.0,63.0,30.00,SSE,150,0.0,-999.0,82,-99.99,,,-99.99,,2013-01-03 04:12:00,
2013-01-02 18:22:00,69.0,64.0,30.01,East,98,0.0,-999.0,83,-99.99,,,-99.99,,2013-01-03 04:22:00,
2013-01-02 18:32:00,69.0,64.0,30.01,ESE,117,0.0,-999.0,85,-99.99,,,-99.99,,2013-01-03 04:32:00,
2013-01-02 18:42:00,69.0,64.0,30.01,ESE,117,0.0,-999.0,85,-99.99,,,-99.99,,2013-01-03 04:42:00,
2013-01-02 18:52:00,69.0,65.0,30.01,ESE,119,0.0,-999.0,86,-99.99,,,-99.99,,2013-01-03 04:52:00,
2013-01-02 19:03:00,69.0,65.0,30.01,East,96,0.0,-999.0,86,-99.99,,,-99.99,,2013-01-03 05:03:00,
2013-01-02 19:12:00,69.0,65.0,30.01,East,96,0.0,-999.0,86,-99.99,,,-99.99,,2013-01-03 05:12:00,
2013-01-02 19:22:00,68.0,64.0,30.02,ESE,105,0.0,-999.0,87,-99.99,,,-99.99,,2013-01-03 05:22:00,
2013-01-02 19:33:00,68.0,64.0,30.02,ESE,105,0.0,-999.0,87,-99.99,,,-99.99,,2013-01-03 05:33:00,
2013-01-02 19:42:00,68.0,64.0,30.02,ESE,105,0.0,-999.0,87,-99.99,,,-99.99,,2013-01-03 05:42:00,
2013-01-02 19:52:00,68.0,64.0,30.03,East,96,0.0,-999.0,87,-99.99,,,-99.99,,2013-01-03 05:52:00,
2013-01-02 20:02:00,68.0,64.0,30.04,East,96,0.0,-999.0,86,-99.99,,,-99.99,,2013-01-03 06:02:00,
2013-01-02 20:12:00,68.0,64.0,30.04,East,96,0.0,-999.0,86,-99.99,,,-99.99,,2013-01-03 06:12:00,
2013-01-02 20:22:00,68.0,64.0,30.04,East,96,0.0,-999.0,86,-99.99,,,-99.99,,2013-01-03 06:22:00,
2013-01-02 20:32:00,67.0,63.0,30.04,East,94,0.0,-999.0,87,-99.99,,,-99.99,,2013-01-03 06:32:00,
2013-01-02 20:42:00,67.0,63.0,30.04,East,94,0.0,-999.0,87,-99.99,,,-99.99,,2013-01-03 06:42:00,
2013-01-02 20:52:00,67.0,63.0,30.05,East,94,0.0,-999.0,88,-99.99,,,-99.99,,2013-01-03 06:52:00,
2013-01-02 21:02:00,67.0,63.0,30.05,East,88,0.0,-999.0,87,-99.99,,,-99.99,,2013-01-03 07:02:00,
2013-01-02 21:11:00,67.0,63.0,30.05,East,88,0.0,-999.0,87,-99.99,,,-99.99,,2013-01-03 07:11:00,
2013-01-02 21:22:00,67.0,63.0,30.05,East,88,0.0,-999.0,87,-99.99,,,-99.99,,2013-01-03 07:22:00,
2013-01-02 21:32:00,67.0,63.0,30.06,East,88,0.0,-999.0,86,-99.99,,,-99.99,,2013-01-03 07:32:00,
2013-01-02 21:42:00,67.0,63.0,30.06,East,88,0.0,-999.0,86,-99.99,,,-99.99,,2013-01-03 07:42:00,
2013-01-02 21:52:00,67.0,63.0,30.05,ENE,74,1.0,-999.0,86,-99.99,,,-99.99,,2013-01-03 07:52:00,
2013-01-02 22:02:00,67.0,63.0,30.05,ENE,78,0.0,-999.0,87,-99.99,,,-99.99,,2013-01-03 08:02:00,
2013-01-02 22:11:00,67.0,63.0,30.05,ENE,78,0.0,-999.0,87,-99.99,,,-99.99,,2013-01-03 08:11:00,
2013-01-02 22:22:00,66.0,62.0,30.06,ENE,78,0.0,-999.0,86,-99.99,,,-99.99,,2013-01-03 08:22:00,
2013-01-02 22:32:00,66.0,61.0,30.06,East,82,1.0,-999.0,85,-99.99,,,-99.99,,2013-01-03 08:32:00,
2013-01-02 22:42:00,66.0,61.0,30.06,East,82,1.0,-999.0,85,-99.99,,,-99.99,,2013-01-03 08:42:00,
2013-01-02 22:52:00,66.0,61.0,30.05,ENE,67,1.0,-999.0,85,-99.99,,,-99.99,,2013-01-03 08:52:00,
2013-01-02 23:02:00,66.0,61.0,30.06,East,81,1.0,-999.0,85,-99.99,,,-99.99,,2013-01-03 09:02:00,
2013-01-02 23:11:00,66.0,61.0,30.06,East,81,1.0,-999.0,85,-99.99,,,-99.99,,2013-01-03 09:11:00,
2013-01-02 23:22:00,66.0,61.0,30.06,ENE,75,0.0,-999.0,84,-99.99,,,-99.99,,2013-01-03 09:22:00,
2013-01-02 23:33:00,66.0,61.0,30.06,ENE,75,0.0,-999.0,83,-99.99,,,-99.99,,2013-01-03 09:33:00,
2013-01-02 23:42:00,66.0,61.0,30.06,ENE,75,0.0,-999.0,83,-99.99,,,-99.99,,2013-01-03 09:42:00,
2013-01-02 23:52:00,66.0,60.0,30.06,East,80,1.0,-999.0,82,-99.99,,,-99.99,,2013-01-03 09:52:00,